Location: Colorado Springs
(38.8340°N, 104.8210°W)
Time: 03:19:21
(UTC-06:00)

Envisat - Pass Details

Date: 11 October 2017
Orbit: 764 x 766 km, 98.2° (Epoch: 23 October)

Event Time Altitude Azimuth Distance (km) Brightness Sun altitude
Exits shadow 20:10:56 35° 51° (NE) 1,232 3.7 -21.2°
Drops below altitude 10° 20:14:50 10° 5° (N) 2,309 5.5 -21.9°
Sets 20:17:17 0° 357° (N) 3,239 6.4 -22.4°
